| time (UTC) | temp F | wind direction | speed MPH | gust MPH | rain 1hr in | rain 24hr in | rain mn in | humidity % | barometer mb |
| 20260510214047 | 59 | 49 | 2.0 | 10.0 | 0.00 | 0.02 | 0.00 | 47 | 1026.8 |
| 20260510213546 | 59 | 128 | 3.0 | 10.0 | 0.00 | 0.02 | 0.00 | 47 | 1026.9 |
| 20260510213053 | 59 | 105 | 2.0 | 6.0 | 0.00 | 0.02 | 0.00 | 46 | 1026.8 |
| 20260510212547 | 59 | 172 | 2.0 | 6.0 | 0.00 | 0.02 | 0.00 | 46 | 1027.0 |
| 20260510212047 | 60 | 153 | 2.0 | 5.0 | 0.00 | 0.02 | 0.00 | 45 | 1026.9 |
| 20260510211557 | 60 | 154 | 1.0 | 7.0 | 0.00 | 0.02 | 0.00 | 45 | 1026.9 |
| 20260510211047 | 59 | 131 | 1.0 | 8.0 | 0.00 | 0.02 | 0.00 | 47 | 1027.0 |
| 20260510210546 | 59 | 115 | 2.0 | 9.0 | 0.00 | 0.02 | 0.00 | 48 | 1027.0 |
| 20260510210048 | 59 | 117 | 3.0 | 9.0 | 0.00 | 0.02 | 0.00 | 47 | 1027.0 |
| 20260510205547 | 59 | 100 | 2.0 | 8.0 | 0.00 | 0.02 | 0.00 | 47 | 1027.1 |
| 20260510205047 | 58 | 83 | 1.0 | 7.0 | 0.00 | 0.02 | 0.00 | 47 | 1027.2 |
| 20260510204557 | 59 | 92 | 2.0 | 7.0 | 0.00 | 0.02 | 0.00 | 48 | 1027.1 |
| 20260510204046 | 59 | 202 | 1.0 | 7.0 | 0.00 | 0.02 | 0.00 | 47 | 1027.2 |
| 20260510203547 | 58 | 119 | 2.0 | 12.0 | 0.00 | 0.02 | 0.00 | 47 | 1027.1 |
| 20260510203053 | 58 | 32 | 4.0 | 12.0 | 0.00 | 0.02 | 0.00 | 48 | 1027.1 |
| 20260510202551 | 58 | 40 | 3.0 | 12.0 | 0.00 | 0.02 | 0.00 | 48 | 1027.1 |
| 20260510202047 | 58 | 0 | 4.0 | 11.0 | 0.00 | 0.02 | 0.00 | 48 | 1027.1 |
| 20260510201549 | 58 | 88 | 3.0 | 9.0 | 0.00 | 0.02 | 0.00 | 48 | 1027.0 |
| 20260510201045 | 58 | 169 | 2.0 | 10.0 | 0.00 | 0.02 | 0.00 | 47 | 1027.0 |
| 20260510200549 | 58 | 59 | 3.0 | 10.0 | 0.00 | 0.02 | 0.00 | 47 | 1027.1 |
| 20260510200106 | 57 | 93 | 2.0 | 7.0 | 0.00 | 0.02 | 0.00 | 47 | 1027.2 |
| 20260510195545 | 57 | 130 | 1.0 | 13.0 | 0.00 | 0.02 | 0.00 | 48 | 1027.2 |
| 20260510195048 | 57 | 86 | 1.0 | 13.0 | 0.00 | 0.02 | 0.00 | 49 | 1027.1 |
| 20260510194606 | 56 | 112 | 4.0 | 13.0 | 0.00 | 0.02 | 0.00 | 49 | 1027.2 |
| 20260510194052 | 56 | 67 | 3.0 | 11.0 | 0.00 | 0.02 | 0.00 | 48 | 1027.1 |
| 20260510193551 | 56 | 49 | 3.0 | 11.0 | 0.00 | 0.02 | 0.00 | 48 | 1027.1 |
| 20260510193103 | 56 | 99 | 2.0 | 10.0 | 0.00 | 0.02 | 0.00 | 49 | 1027.2 |
| 20260510192548 | 56 | 0 | 2.0 | 10.0 | 0.00 | 0.02 | 0.00 | 48 | 1027.0 |
| 20260510192048 | 56 | 0 | 3.0 | 13.0 | 0.00 | 0.02 | 0.00 | 49 | 1027.2 |
| 20260510191549 | 56 | 76 | 7.0 | 13.0 | 0.00 | 0.02 | 0.00 | 48 | 1027.1 |
| 20260510191044 | 56 | 54 | 2.0 | 9.0 | 0.00 | 0.02 | 0.00 | 50 | 1027.1 |
| 20260510190547 | 56 | 115 | 4.0 | 14.0 | 0.00 | 0.02 | 0.00 | 50 | 1027.0 |
| 20260510190054 | 55 | 58 | 3.0 | 14.0 | 0.00 | 0.02 | 0.00 | 51 | 1027.2 |
| 20260510185547 | 55 | 57 | 5.0 | 13.0 | 0.00 | 0.02 | 0.00 | 51 | 1027.2 |
| 20260510185048 | 55 | 61 | 0.0 | 9.0 | 0.00 | 0.02 | 0.00 | 52 | 1027.2 |
| 20260510184601 | 55 | 0 | 3.0 | 9.0 | 0.00 | 0.02 | 0.00 | 51 | 1027.3 |
| 20260510184048 | 55 | 0 | 2.0 | 9.0 | 0.00 | 0.02 | 0.00 | 54 | 1027.2 |
| 20260510183550 | 55 | 0 | 1.0 | 10.0 | 0.00 | 0.02 | 0.00 | 55 | 1027.2 |
| 20260510183050 | 55 | 76 | 3.0 | 10.0 | 0.00 | 0.02 | 0.00 | 52 | 1027.3 |
| 20260510182547 | 55 | 55 | 1.0 | 11.0 | 0.00 | 0.02 | 0.00 | 54 | 1027.4 |
| 20260510182048 | 54 | 78 | 2.0 | 11.0 | 0.00 | 0.02 | 0.00 | 53 | 1027.5 |
| 20260510181553 | 54 | 46 | 3.0 | 11.0 | 0.00 | 0.02 | 0.00 | 54 | 1027.4 |
| 20260510181048 | 53 | 0 | 2.0 | 14.0 | 0.00 | 0.02 | 0.00 | 52 | 1027.4 |
| 20260510180545 | 54 | 36 | 4.0 | 14.0 | 0.00 | 0.02 | 0.00 | 54 | 1027.6 |
| 20260510180054 | 54 | 70 | 5.0 | 17.0 | 0.00 | 0.02 | 0.00 | 54 | 1027.6 |
| 20260510175548 | 54 | 88 | 5.0 | 17.0 | 0.00 | 0.02 | 0.00 | 56 | 1027.4 |
| 20260510175045 | 53 | 0 | 2.0 | 11.0 | 0.00 | 0.02 | 0.00 | 58 | 1027.3 |
| 20260510174603 | 53 | 106 | 5.0 | 11.0 | 0.00 | 0.02 | 0.00 | 58 | 1027.5 |
| 20260510174047 | 53 | 106 | 3.0 | 9.0 | 0.00 | 0.02 | 0.00 | 58 | 1027.5 |
| 20260510173552 | 53 | 105 | 1.0 | 9.0 | 0.00 | 0.02 | 0.00 | 58 | 1027.6 |
| 20260510173056 | 53 | 70 | 4.0 | 9.0 | 0.00 | 0.02 | 0.00 | 59 | 1027.6 |
| 20260510172547 | 53 | 56 | 3.0 | 7.0 | 0.00 | 0.02 | 0.00 | 57 | 1027.6 |
| 20260510172050 | 53 | 0 | 2.0 | 9.0 | 0.00 | 0.02 | 0.00 | 59 | 1027.4 |
| 20260510171553 | 53 | 49 | 2.0 | 9.0 | 0.00 | 0.02 | 0.00 | 61 | 1027.4 |
| 20260510171051 | 52 | 0 | 2.0 | 9.0 | 0.00 | 0.02 | 0.00 | 61 | 1027.4 |
| 20260510170548 | 52 | 107 | 0.0 | 11.0 | 0.00 | 0.02 | 0.00 | 63 | 1027.3 |
| 20260510170057 | 52 | 29 | 0.0 | 12.0 | 0.00 | 0.02 | 0.00 | 62 | 1027.4 |
| 20260510165551 | 52 | 39 | 4.0 | 12.0 | 0.00 | 0.02 | 0.00 | 60 | 1027.4 |
| 20260510165048 | 52 | 0 | 1.0 | 10.0 | 0.00 | 0.02 | 0.00 | 59 | 1027.4 |
| 20260510164601 | 52 | 0 | 3.0 | 10.0 | 0.00 | 0.02 | 0.00 | 60 | 1027.4 |
| 20260510164048 | 52 | 56 | 4.0 | 10.0 | 0.00 | 0.02 | 0.00 | 60 | 1027.5 |
| 20260510163551 | 52 | 64 | 0.0 | 9.0 | 0.00 | 0.02 | 0.00 | 63 | 1027.5 |
| 20260510163053 | 52 | 135 | 3.0 | 11.0 | 0.00 | 0.02 | 0.00 | 64 | 1027.6 |
| 20260510162545 | 52 | 122 | 2.0 | 11.0 | 0.00 | 0.02 | 0.00 | 63 | 1027.5 |
| 20260510162048 | 52 | 47 | 2.0 | 13.0 | 0.00 | 0.02 | 0.00 | 67 | 1027.6 |
| 20260510161552 | 51 | 31 | 5.0 | 13.0 | 0.00 | 0.02 | 0.00 | 66 | 1027.5 |
| 20260510161048 | 52 | 109 | 4.0 | 14.0 | 0.00 | 0.02 | 0.00 | 64 | 1027.5 |
| 20260510160548 | 51 | 87 | 5.0 | 14.0 | 0.00 | 0.02 | 0.00 | 66 | 1027.3 |
| 20260510160049 | 51 | 0 | 4.0 | 11.0 | 0.00 | 0.02 | 0.00 | 65 | 1027.2 |
| 20260510155547 | 51 | 0 | 3.0 | 11.0 | 0.00 | 0.02 | 0.00 | 67 | 1027.2 |
| 20260510155047 | 50 | 0 | 0.0 | 7.0 | 0.00 | 0.02 | 0.00 | 70 | 1027.2 |
| 20260510154556 | 51 | 0 | 0.0 | 9.0 | 0.00 | 0.02 | 0.00 | 67 | 1027.1 |
| 20260510154047 | 51 | 0 | 2.0 | 12.0 | 0.00 | 0.02 | 0.00 | 66 | 1027.2 |
| 20260510153547 | 51 | 0 | 5.0 | 12.0 | 0.00 | 0.02 | 0.00 | 67 | 1027.1 |
| 20260510153052 | 52 | 84 | 1.0 | 9.0 | 0.00 | 0.02 | 0.00 | 65 | 1027.0 |
| 20260510152545 | 52 | 0 | 4.0 | 9.0 | 0.00 | 0.02 | 0.00 | 56 | 1027.0 |
| 20260510152044 | 52 | 0 | 1.0 | 6.0 | 0.00 | 0.02 | 0.00 | 63 | 1026.8 |
| 20260510151554 | 52 | 0 | 2.0 | 6.0 | 0.00 | 0.02 | 0.00 | 61 | 1026.8 |
| 20260510151045 | 52 | 0 | 0.0 | 7.0 | 0.00 | 0.02 | 0.00 | 63 | 1026.7 |
| 20260510150545 | 52 | 0 | 1.0 | 7.0 | 0.00 | 0.02 | 0.00 | 61 | 1026.7 |
| 20260510150114 | 52 | 38 | 1.0 | 7.0 | 0.00 | 0.02 | 0.00 | 59 | 1026.6 |
| 20260510145551 | 52 | 0 | 2.0 | 7.0 | 0.00 | 0.02 | 0.00 | 51 | 1026.6 |
| 20260510145047 | 52 | 50 | 2.0 | 5.0 | 0.00 | 0.02 | 0.00 | 52 | 1026.6 |
| 20260510144609 | 51 | 0 | 0.0 | 4.0 | 0.00 | 0.02 | 0.00 | 53 | 1026.6 |
| 20260510144046 | 50 | 0 | 0.0 | 2.0 | 0.00 | 0.02 | 0.00 | 55 | 1026.7 |
| 20260510143550 | 50 | 300 | 0.0 | 1.0 | 0.00 | 0.02 | 0.00 | 59 | 1026.7 |
| 20260510143056 | 49 | 0 | 0.0 | 0.0 | 0.00 | 0.02 | 0.00 | 64 | 1026.7 |
| 20260510142544 | 49 | 0 | 0.0 | 0.0 | 0.00 | 0.02 | 0.00 | 68 | 1026.7 |
| 20260510142048 | 48 | 0 | 0.0 | 1.0 | 0.00 | 0.02 | 0.00 | 69 | 1026.7 |
| 20260510141550 | 48 | 0 | 0.0 | 1.0 | 0.00 | 0.02 | 0.00 | 72 | 1026.7 |
| 20260510141047 | 47 | 0 | 0.0 | 6.0 | 0.00 | 0.02 | 0.00 | 73 | 1026.7 |
| 20260510140544 | 46 | 0 | 0.0 | 6.0 | 0.00 | 0.02 | 0.00 | 77 | 1026.7 |
| 20260510140050 | 45 | 0 | 0.0 | 8.0 | 0.00 | 0.02 | 0.00 | 79 | 1026.7 |
| 20260510135544 | 45 | 230 | 1.0 | 8.0 | 0.00 | 0.02 | 0.00 | 81 | 1026.6 |
| 20260510135046 | 44 | 0 | 0.0 | 7.0 | 0.00 | 0.02 | 0.00 | 82 | 1026.7 |
| 20260510134605 | 44 | 0 | 0.0 | 4.0 | 0.00 | 0.02 | 0.00 | 87 | 1026.7 |
| 20260510134044 | 43 | 0 | 0.0 | 0.0 | 0.00 | 0.02 | 0.00 | 89 | 1026.7 |
| 20260510133544 | 42 | 0 | 0.0 | 0.0 | 0.00 | 0.02 | 0.00 | 90 | 1026.7 |
| 20260510133050 | 42 | 0 | 0.0 | 0.0 | 0.00 | 0.02 | 0.00 | 91 | 1026.8 |
| 20260510132544 | 42 | 0 | 0.0 | 0.0 | 0.00 | 0.02 | 0.00 | 92 | 1026.8 |
| 20260510132047 | 41 | 0 | 0.0 | 0.0 | 0.00 | 0.02 | 0.00 | 92 | 1026.9 |
| 20260510131551 | 41 | 0 | 0.0 | 0.0 | 0.00 | 0.02 | 0.00 | 92 | 1026.8 |
| 20260510131044 | 41 | 0 | 0.0 | 0.0 | 0.00 | 0.02 | 0.00 | 93 | 1026.9 |
| 20260510130545 | 41 | 0 | 0.0 | 0.0 | 0.00 | 0.02 | 0.00 | 94 | 1026.9 |
| 20260510130050 | 40 | 0 | 0.0 | 0.0 | 0.00 | 0.02 | 0.00 | 94 | 1027.0 |
| 20260510125545 | 40 | 0 | 0.0 | 0.0 | 0.00 | 0.02 | 0.00 | 94 | 1026.9 |
| 20260510125045 | 40 | 0 | 0.0 | 0.0 | 0.00 | 0.02 | 0.00 | 94 | 1026.9 |
| 20260510124549 | 40 | 0 | 0.0 | 0.0 | 0.00 | 0.02 | 0.00 | 94 | 1027.0 |
| 20260510124045 | 39 | 0 | 0.0 | 0.0 | 0.00 | 0.02 | 0.00 | 94 | 1027.0 |
| 20260510123545 | 39 | 0 | 0.0 | 0.0 | 0.00 | 0.02 | 0.00 | 93 | 1027.0 |
| 20260510123052 | 39 | 0 | 0.0 | 0.0 | 0.00 | 0.02 | 0.00 | 93 | 1027.1 |
| 20260510122544 | 39 | 0 | 0.0 | 0.0 | 0.00 | 0.02 | 0.00 | 93 | 1027.1 |
| 20260510122045 | 39 | 0 | 0.0 | 0.0 | 0.00 | 0.02 | 0.00 | 94 | 1027.0 |
| 20260510121550 | 39 | 0 | 0.0 | 0.0 | 0.00 | 0.02 | 0.00 | 93 | 1027.0 |
| 20260510121043 | 39 | 0 | 0.0 | 0.0 | 0.00 | 0.02 | 0.00 | 94 | 1027.0 |
| 20260510120544 | 39 | 0 | 0.0 | 0.0 | 0.00 | 0.02 | 0.00 | 93 | 1027.0 |
| 20260510120051 | 39 | 0 | 0.0 | 0.0 | 0.00 | 0.02 | 0.00 | 94 | 1026.9 |
| 20260510115544 | 39 | 0 | 0.0 | 0.0 | 0.00 | 0.02 | 0.00 | 93 | 1026.8 |
| 20260510115044 | 39 | 0 | 0.0 | 0.0 | 0.00 | 0.02 | 0.00 | 93 | 1026.8 |
| 20260510114608 | 39 | 0 | 0.0 | 0.0 | 0.00 | 0.02 | 0.00 | 93 | 1026.8 |
| 20260510114043 | 39 | 0 | 0.0 | 0.0 | 0.00 | 0.02 | 0.00 | 93 | 1026.7 |
| 20260510113543 | 39 | 0 | 0.0 | 0.0 | 0.00 | 0.02 | 0.00 | 93 | 1026.7 |
| 20260510113058 | 39 | 0 | 0.0 | 0.0 | 0.00 | 0.02 | 0.00 | 93 | 1026.6 |
| 20260510112543 | 39 | 0 | 0.0 | 0.0 | 0.00 | 0.02 | 0.00 | 93 | 1026.5 |
| 20260510112045 | 39 | 0 | 0.0 | 0.0 | 0.00 | 0.02 | 0.00 | 94 | 1026.4 |
| 20260510111548 | 39 | 0 | 0.0 | 3.0 | 0.00 | 0.02 | 0.00 | 94 | 1026.4 |
| 20260510111045 | 39 | 0 | 0.0 | 3.0 | 0.00 | 0.02 | 0.00 | 93 | 1026.4 |
| 20260510110545 | 39 | 0 | 0.0 | 0.0 | 0.00 | 0.02 | 0.00 | 94 | 1026.4 |
| 20260510110047 | 39 | 0 | 0.0 | 0.0 | 0.00 | 0.02 | 0.00 | 94 | 1026.4 |
| 20260510105545 | 40 | 0 | 0.0 | 3.0 | 0.00 | 0.02 | 0.00 | 94 | 1026.4 |
| 20260510105046 | 40 | 0 | 0.0 | 3.0 | 0.00 | 0.02 | 0.00 | 94 | 1026.4 |
| 20260510104557 | 40 | 0 | 0.0 | 5.0 | 0.00 | 0.02 | 0.00 | 94 | 1026.4 |
| 20260510104045 | 40 | 0 | 0.0 | 5.0 | 0.00 | 0.02 | 0.00 | 93 | 1026.3 |
| 20260510103545 | 40 | 0 | 1.0 | 5.0 | 0.00 | 0.02 | 0.00 | 93 | 1026.4 |
| 20260510103051 | 40 | 0 | 0.0 | 5.0 | 0.00 | 0.02 | 0.00 | 93 | 1026.4 |
| 20260510102547 | 40 | 0 | 1.0 | 5.0 | 0.00 | 0.02 | 0.00 | 93 | 1026.3 |
| 20260510102047 | 40 | 0 | 0.0 | 0.0 | 0.00 | 0.02 | 0.00 | 93 | 1026.2 |
| 20260510101548 | 40 | 0 | 0.0 | 0.0 | 0.00 | 0.02 | 0.00 | 93 | 1026.2 |
| 20260510101047 | 40 | 0 | 0.0 | 3.0 | 0.00 | 0.02 | 0.00 | 93 | 1026.2 |
| 20260510100547 | 40 | 0 | 0.0 | 3.0 | 0.00 | 0.02 | 0.00 | 93 | 1026.2 |
| 20260510100101 | 40 | 0 | 0.0 | 3.0 | 0.00 | 0.02 | 0.00 | 94 | 1026.1 |
| 20260510095545 | 40 | 0 | 0.0 | 0.0 | 0.00 | 0.02 | 0.00 | 93 | 1026.1 |
| 20260510095042 | 40 | 0 | 0.0 | 0.0 | 0.00 | 0.02 | 0.00 | 93 | 1026.1 |
| 20260510094555 | 40 | 0 | 0.0 | 0.0 | 0.00 | 0.02 | 0.00 | 93 | 1025.9 |
| 20260510094045 | 40 | 0 | 0.0 | 0.0 | 0.00 | 0.02 | 0.00 | 93 | 1025.9 |
| 20260510093542 | 40 | 0 | 0.0 | 0.0 | 0.00 | 0.02 | 0.00 | 93 | 1025.9 |
| 20260510093053 | 40 | 0 | 0.0 | 1.0 | 0.00 | 0.02 | 0.00 | 93 | 1025.9 |
| 20260510092546 | 40 | 0 | 0.0 | 1.0 | 0.00 | 0.02 | 0.00 | 93 | 1025.9 |
| 20260510092043 | 40 | 0 | 0.0 | 0.0 | 0.00 | 0.02 | 0.00 | 93 | 1025.8 |
| 20260510091550 | 40 | 0 | 0.0 | 0.0 | 0.00 | 0.02 | 0.00 | 93 | 1025.9 |
| 20260510091043 | 40 | 0 | 0.0 | 0.0 | 0.00 | 0.02 | 0.00 | 93 | 1025.8 |
| 20260510090550 | 40 | 0 | 0.0 | 0.0 | 0.00 | 0.02 | 0.00 | 93 | 1025.7 |
| 20260510090053 | 40 | 0 | 0.0 | 0.0 | 0.00 | 0.02 | 0.00 | 93 | 1025.6 |
| 20260510085546 | 40 | 0 | 0.0 | 0.0 | 0.00 | 0.02 | 0.00 | 93 | 1025.4 |
| 20260510085046 | 40 | 0 | 0.0 | 0.0 | 0.00 | 0.02 | 0.00 | 93 | 1025.3 |
| 20260510084546 | 40 | 0 | 0.0 | 0.0 | 0.00 | 0.02 | 0.00 | 93 | 1025.2 |
| 20260510084043 | 40 | 0 | 0.0 | 0.0 | 0.00 | 0.02 | 0.00 | 93 | 1025.2 |
| 20260510083546 | 40 | 0 | 0.0 | 0.0 | 0.00 | 0.02 | 0.00 | 93 | 1025.2 |
| 20260510083051 | 40 | 0 | 0.0 | 0.0 | 0.00 | 0.02 | 0.00 | 93 | 1025.1 |
| 20260510082545 | 40 | 0 | 0.0 | 0.0 | 0.00 | 0.02 | 0.00 | 93 | 1025.1 |
| 20260510082043 | 40 | 0 | 0.0 | 0.0 | 0.00 | 0.02 | 0.00 | 93 | 1025.2 |
| 20260510081550 | 40 | 0 | 0.0 | 0.0 | 0.00 | 0.02 | 0.00 | 93 | 1025.2 |
| 20260510081045 | 40 | 0 | 0.0 | 0.0 | 0.00 | 0.02 | 0.00 | 93 | 1025.3 |
| 20260510080545 | 40 | 0 | 0.0 | 0.0 | 0.00 | 0.02 | 0.00 | 93 | 1025.3 |
| 20260510080054 | 40 | 0 | 0.0 | 0.0 | 0.00 | 0.02 | 0.00 | 93 | 1025.3 |
| 20260510075544 | 40 | 0 | 0.0 | 0.0 | 0.00 | 0.02 | 0.00 | 93 | 1025.4 |
| 20260510075044 | 40 | 0 | 0.0 | 0.0 | 0.00 | 0.02 | 0.00 | 93 | 1025.2 |
| 20260510074602 | 40 | 0 | 0.0 | 0.0 | 0.00 | 0.02 | 0.00 | 93 | 1025.2 |
| 20260510074045 | 40 | 0 | 0.0 | 0.0 | 0.00 | 0.02 | 0.00 | 92 | 1025.3 |
| 20260510073544 | 40 | 0 | 0.0 | 0.0 | 0.00 | 0.02 | 0.00 | 92 | 1025.4 |
| 20260510073052 | 40 | 0 | 0.0 | 0.0 | 0.00 | 0.02 | 0.00 | 92 | 1025.5 |
| 20260510072545 | 40 | 0 | 0.0 | 0.0 | 0.00 | 0.02 | 0.00 | 92 | 1025.5 |
| 20260510072047 | 40 | 0 | 0.0 | 0.0 | 0.00 | 0.02 | 0.00 | 92 | 1025.4 |
| 20260510071556 | 40 | 0 | 0.0 | 0.0 | 0.00 | 0.02 | 0.00 | 92 | 1025.7 |
| 20260510071045 | 40 | 0 | 0.0 | 0.0 | 0.00 | 0.02 | 0.00 | 92 | 1025.6 |
| 20260510070544 | 40 | 0 | 0.0 | 0.0 | 0.00 | 0.02 | 0.00 | 92 | 1025.6 |
| 20260510070105 | 41 | 0 | 0.0 | 0.0 | 0.00 | 0.02 | 0.00 | 92 | 1025.6 |
| 20260510065545 | 41 | 0 | 0.0 | 0.0 | 0.00 | 0.02 | 0.00 | 92 | 1025.7 |
| 20260510065044 | 41 | 0 | 0.0 | 0.0 | 0.00 | 0.02 | 0.00 | 92 | 1025.8 |
| 20260510064558 | 41 | 0 | 0.0 | 0.0 | 0.00 | 0.02 | 0.00 | 92 | 1025.9 |
| 20260510064044 | 41 | 0 | 0.0 | 0.0 | 0.01 | 0.02 | 0.00 | 92 | 1025.8 |
| 20260510063545 | 41 | 0 | 0.0 | 0.0 | 0.01 | 0.02 | 0.00 | 92 | 1025.9 |
| 20260510063048 | 41 | 0 | 0.0 | 0.0 | 0.01 | 0.02 | 0.00 | 92 | 1025.9 |
| 20260510062545 | 41 | 0 | 0.0 | 0.0 | 0.01 | 0.02 | 0.00 | 92 | 1026.0 |
| 20260510062044 | 41 | 0 | 0.0 | 0.0 | 0.01 | 0.02 | 0.00 | 91 | 1026.0 |
| 20260510061551 | 41 | 0 | 0.0 | 0.0 | 0.01 | 0.02 | 0.00 | 91 | 1026.0 |
| 20260510061048 | 41 | 0 | 0.0 | 0.0 | 0.01 | 0.02 | 0.00 | 92 | 1025.9 |
| 20260510060547 | 41 | 0 | 0.0 | 0.0 | 0.01 | 0.02 | 0.00 | 92 | 1026.0 |
| 20260510060054 | 41 | 0 | 0.0 | 0.0 | 0.01 | 0.02 | 0.00 | 91 | 1025.9 |
| 20260510055543 | 41 | 0 | 0.0 | 0.0 | 0.01 | 0.02 | 0.02 | 91 | 1025.8 |
| 20260510055045 | 41 | 0 | 0.0 | 0.0 | 0.01 | 0.02 | 0.02 | 91 | 1026.0 |
| 20260510054559 | 41 | 0 | 0.0 | 0.0 | 0.01 | 0.02 | 0.02 | 91 | 1025.9 |
| 20260510054044 | 41 | 0 | 0.0 | 0.0 | 0.00 | 0.01 | 0.01 | 91 | 1025.9 |
| 20260510053548 | 41 | 0 | 0.0 | 0.0 | 0.00 | 0.01 | 0.01 | 91 | 1025.9 |
| 20260510053055 | 41 | 0 | 0.0 | 0.0 | 0.00 | 0.01 | 0.01 | 91 | 1025.9 |
| 20260510052545 | 41 | 0 | 0.0 | 0.0 | 0.00 | 0.01 | 0.01 | 91 | 1025.9 |
| 20260510052045 | 41 | 0 | 0.0 | 0.0 | 0.01 | 0.01 | 0.01 | 91 | 1026.0 |
| 20260510051554 | 41 | 0 | 0.0 | 0.0 | 0.01 | 0.01 | 0.01 | 91 | 1026.1 |
| 20260510051049 | 41 | 0 | 0.0 | 0.0 | 0.01 | 0.01 | 0.01 | 91 | 1026.0 |
| 20260510050545 | 41 | 0 | 0.0 | 0.0 | 0.01 | 0.01 | 0.01 | 90 | 1026.1 |
| 20260510050058 | 41 | 0 | 0.0 | 2.0 | 0.01 | 0.01 | 0.01 | 90 | 1026.2 |
| 20260510045549 | 41 | 0 | 0.0 | 2.0 | 0.01 | 0.01 | 0.01 | 90 | 1025.9 |
| 20260510045043 | 41 | 0 | 0.0 | 0.0 | 0.01 | 0.01 | 0.01 | 90 | 1025.7 |
| 20260510044612 | 41 | 0 | 0.0 | 0.0 | 0.01 | 0.01 | 0.01 | 90 | 1026.3 |
| 20260510044047 | 41 | 0 | 0.0 | 0.0 | 0.01 | 0.01 | 0.01 | 89 | 1026.5 |
| 20260510043547 | 41 | 0 | 0.0 | 0.0 | 0.01 | 0.01 | 0.01 | 89 | 1026.4 |
| 20260510043047 | 42 | 0 | 0.0 | 0.0 | 0.01 | 0.01 | 0.01 | 88 | 1026.0 |
| 20260510042544 | 42 | 0 | 0.0 | 0.0 | 0.01 | 0.01 | 0.01 | 88 | 1026.1 |
| 20260510042045 | 42 | 0 | 0.0 | 0.0 | 0.00 | 0.00 | 0.00 | 87 | 1026.0 |
| 20260510041557 | 42 | 0 | 0.0 | 0.0 | 0.00 | 0.00 | 0.00 | 87 | 1025.9 |
| 20260510041047 | 42 | 0 | 0.0 | 0.0 | 0.00 | 0.00 | 0.00 | 86 | 1026.1 |
| 20260510040547 | 42 | 0 | 0.0 | 0.0 | 0.00 | 0.00 | 0.00 | 85 | 1026.2 |
| 20260510040049 | 42 | 0 | 0.0 | 0.0 | 0.00 | 0.00 | 0.00 | 85 | 1026.4 |
| 20260510035545 | 42 | 0 | 0.0 | 0.0 | 0.00 | 0.00 | 0.00 | 85 | 1026.4 |
| 20260510035047 | 42 | 0 | 0.0 | 0.0 | 0.00 | 0.00 | 0.00 | 85 | 1026.4 |
| 20260510034550 | 42 | 0 | 0.0 | 0.0 | 0.00 | 0.00 | 0.00 | 85 | 1026.3 |
| 20260510034043 | 42 | 0 | 0.0 | 0.0 | 0.00 | 0.00 | 0.00 | 85 | 1026.3 |
| 20260510033545 | 42 | 0 | 0.0 | 0.0 | 0.00 | 0.00 | 0.00 | 85 | 1026.2 |
| 20260510033118 | 42 | 0 | 0.0 | 0.0 | 0.00 | 0.00 | 0.00 | 86 | 1026.0 |
| 20260510032546 | 42 | 0 | 0.0 | 0.0 | 0.00 | 0.00 | 0.00 | 85 | 1025.9 |
| 20260510032043 | 42 | 0 | 0.0 | 0.0 | 0.00 | 0.00 | 0.00 | 86 | 1025.7 |
| 20260510031610 | 42 | 0 | 0.0 | 0.0 | 0.00 | 0.00 | 0.00 | 86 | 1025.6 |
| 20260510031048 | 42 | 0 | 0.0 | 6.0 | 0.00 | 0.00 | 0.00 | 86 | 1025.4 |
| 20260510030544 | 42 | 0 | 0.0 | 6.0 | 0.00 | 0.00 | 0.00 | 86 | 1025.2 |
| 20260510030054 | 42 | 0 | 0.0 | 3.0 | 0.00 | 0.00 | 0.00 | 86 | 1025.0 |
| 20260510025545 | 42 | 0 | 0.0 | 5.0 | 0.00 | 0.00 | 0.00 | 86 | 1025.0 |
| 20260510025044 | 42 | 0 | 0.0 | 7.0 | 0.00 | 0.00 | 0.00 | 86 | 1024.9 |
| 20260510024554 | 42 | 0 | 0.0 | 11.0 | 0.00 | 0.00 | 0.00 | 86 | 1024.7 |
| 20260510024044 | 42 | 45 | 1.0 | 14.0 | 0.00 | 0.00 | 0.00 | 86 | 1024.5 |
| 20260510023543 | 42 | 40 | 2.0 | 14.0 | 0.00 | 0.00 | 0.00 | 86 | 1024.4 |
| 20260510023052 | 42 | 67 | 6.0 | 14.0 | 0.00 | 0.00 | 0.00 | 85 | 1024.4 |
| 20260510022545 | 42 | 38 | 4.0 | 17.0 | 0.00 | 0.00 | 0.00 | 85 | 1024.1 |
| 20260510022042 | 42 | 28 | 5.0 | 17.0 | 0.00 | 0.00 | 0.00 | 85 | 1023.8 |
| 20260510021552 | 42 | 29 | 9.0 | 18.0 | 0.00 | 0.00 | 0.00 | 85 | 1023.7 |
| 20260510021046 | 43 | 36 | 6.0 | 19.0 | 0.00 | 0.00 | 0.00 | 84 | 1023.7 |
| 20260510020548 | 43 | 9 | 8.0 | 20.0 | 0.00 | 0.00 | 0.00 | 84 | 1023.5 |
| 20260510020054 | 43 | 0 | 12.0 | 20.0 | 0.00 | 0.00 | 0.00 | 83 | 1023.5 |
| 20260510015544 | 43 | 0 | 9.0 | 23.0 | 0.00 | 0.00 | 0.00 | 81 | 1023.0 |
| 20260510015048 | 44 | 24 | 10.0 | 23.0 | 0.00 | 0.00 | 0.00 | 80 | 1022.8 |
| 20260510014606 | 44 | 57 | 7.0 | 19.0 | 0.00 | 0.00 | 0.00 | 79 | 1022.6 |
| 20260510014044 | 45 | 36 | 6.0 | 19.0 | 0.00 | 0.00 | 0.00 | 77 | 1022.5 |
| 20260510013545 | 45 | 26 | 6.0 | 17.0 | 0.00 | 0.00 | 0.00 | 75 | 1022.3 |
| 20260510013051 | 46 | 65 | 4.0 | 16.0 | 0.00 | 0.00 | 0.00 | 74 | 1022.2 |
| 20260510012545 | 46 | 0 | 0.0 | 19.0 | 0.00 | 0.00 | 0.00 | 73 | 1022.1 |
| 20260510012045 | 47 | 42 | 4.0 | 28.0 | 0.00 | 0.00 | 0.00 | 71 | 1021.8 |
| 20260510011556 | 47 | 59 | 10.0 | 28.0 | 0.00 | 0.00 | 0.00 | 69 | 1021.4 |
| 20260510011049 | 49 | 49 | 9.0 | 18.0 | 0.00 | 0.00 | 0.00 | 67 | 1021.0 |
| 20260510010545 | 50 | 0 | 3.0 | 15.0 | 0.00 | 0.00 | 0.00 | 64 | 1021.0 |
| 20260510005545 | 51 | 24 | 8.0 | 21.0 | 0.00 | 0.00 | 0.00 | 60 | 1020.2 |
| 20260510005048 | 53 | 38 | 7.0 | 24.0 | 0.00 | 0.00 | 0.00 | 56 | 1020.1 |
| 20260510004554 | 56 | 0 | 12.0 | 24.0 | 0.00 | 0.00 | 0.00 | 48 | 1019.9 |
| 20260510004044 | 60 | 34 | 8.0 | 19.0 | 0.00 | 0.00 | 0.00 | 36 | 1019.7 |
| 20260510003545 | 62 | 21 | 1.0 | 8.0 | 0.00 | 0.00 | 0.00 | 15 | 1019.5 |
| 20260510003058 | 62 | 0 | 0.0 | 8.0 | 0.00 | 0.00 | 0.00 | 13 | 1019.4 |
| 20260510002545 | 62 | 0 | 1.0 | 7.0 | 0.00 | 0.00 | 0.00 | 15 | 1019.4 |
| 20260510002044 | 62 | 0 | 1.0 | 9.0 | 0.00 | 0.00 | 0.00 | 15 | 1019.2 |
| 20260510001550 | 62 | 30 | 1.0 | 9.0 | 0.00 | 0.00 | 0.00 | 14 | 1019.0 |
| 20260510001044 | 63 | 0 | 0.0 | 9.0 | 0.00 | 0.00 | 0.00 | 15 | 1019.1 |
| 20260510000545 | 63 | 0 | 0.0 | 9.0 | 0.00 | 0.00 | 0.00 | 16 | 1018.9 |
| 20260510000053 | 63 | 0 | 0.0 | 5.0 | 0.00 | 0.00 | 0.00 | 15 | 1018.8 |
| 20260509235547 | 63 | 215 | 0.0 | 7.0 | 0.00 | 0.00 | 0.00 | 15 | 1018.7 |
| 20260509235045 | 64 | 219 | 1.0 | 7.0 | 0.00 | 0.00 | 0.00 | 14 | 1018.7 |
| 20260509234604 | 64 | 0 | 1.0 | 10.0 | 0.00 | 0.00 | 0.00 | 14 | 1018.7 |
| 20260509234044 | 64 | 0 | 1.0 | 10.0 | 0.00 | 0.00 | 0.00 | 14 | 1018.7 |
| 20260509233549 | 65 | 293 | 1.0 | 10.0 | 0.00 | 0.00 | 0.00 | 14 | 1018.8 |
| 20260509233053 | 65 | 269 | 1.0 | 10.0 | 0.00 | 0.00 | 0.00 | 13 | 1018.5 |
| 20260509232545 | 65 | 40 | 0.0 | 7.0 | 0.00 | 0.00 | 0.00 | 13 | 1018.5 |
| 20260509232045 | 65 | 285 | 0.0 | 7.0 | 0.00 | 0.00 | 0.00 | 13 | 1018.4 |
| 20260509231552 | 65 | 360 | 0.0 | 7.0 | 0.00 | 0.00 | 0.00 | 13 | 1018.3 |
| 20260509231044 | 66 | 178 | 0.0 | 7.0 | 0.00 | 0.00 | 0.00 | 13 | 1018.2 |
| 20260509230544 | 66 | 0 | 1.0 | 8.0 | 0.00 | 0.00 | 0.00 | 12 | 1018.2 |
| 20260509230052 | 66 | 0 | 2.0 | 8.0 | 0.00 | 0.00 | 0.00 | 13 | 1018.1 |
| 20260509225548 | 67 | 0 | 1.0 | 6.0 | 0.00 | 0.00 | 0.00 | 14 | 1018.1 |
| 20260509225046 | 67 | 0 | 1.0 | 11.0 | 0.00 | 0.00 | 0.00 | 12 | 1018.0 |
| 20260509224550 | 67 | 308 | 2.0 | 11.0 | 0.00 | 0.00 | 0.00 | 12 | 1018.1 |
| 20260509224044 | 67 | 230 | 2.0 | 8.0 | 0.00 | 0.00 | 0.00 | 12 | 1018.0 |
| 20260509223545 | 68 | 59 | 1.0 | 9.0 | 0.00 | 0.00 | 0.00 | 11 | 1017.9 |
| 20260509223057 | 68 | 300 | 2.0 | 13.0 | 0.00 | 0.00 | 0.00 | 10 | 1018.0 |
| 20260509222544 | 68 | 360 | 2.0 | 13.0 | 0.00 | 0.00 | 0.00 | 11 | 1018.0 |
| 20260509222045 | 68 | 355 | 2.0 | 10.0 | 0.00 | 0.00 | 0.00 | 12 | 1017.9 |
| 20260509221554 | 68 | 207 | 2.0 | 10.0 | 0.00 | 0.00 | 0.00 | 12 | 1017.7 |
| 20260509221045 | 68 | 284 | 3.0 | 10.0 | 0.00 | 0.00 | 0.00 | 11 | 1017.8 |
| 20260509220544 | 68 | 0 | 2.0 | 11.0 | 0.00 | 0.00 | 0.00 | 11 | 1017.8 |
| 20260509220100 | 68 | 320 | 4.0 | 13.0 | 0.00 | 0.00 | 0.00 | 11 | 1017.9 |
| 20260509215545 | 69 | 248 | 2.0 | 18.0 | 0.00 | 0.00 | 0.00 | 11 | 1017.8 |
| 20260509215045 | 69 | 207 | 4.0 | 18.0 | 0.00 | 0.00 | 0.00 | 11 | 1018.0 |
| 20260509214555 | 70 | 313 | 2.0 | 11.0 | 0.00 | 0.00 | 0.00 | 12 | 1017.8 |